This is the latest recevied weather packets stored in our database for station/object KG5APU. If no packets are shown the sender has not sent any weather packets the latest 10 day(s).
| Time | Temp. | Humidity | Pressure | Rain* | Wind** | Luminosity | Snow |
|---|---|---|---|---|---|---|---|
| 1777899927 | 17.78° C | 75% | 1014.4 hPa | 0 mm | - | 140 W/m² | - |
| 1777899328 | 17.78° C | 76% | 1014.8 hPa | 0 mm | - | 116 W/m² | - |
| 1777898728 | 17.22° C | 77% | 1014.4 hPa | 0 mm | - | 89 W/m² | - |
| 1777898123 | 17.22° C | 76% | 1014.4 hPa | 0 mm | - | 70 W/m² | - |
| 1777897521 | 17.22° C | 78% | 1014.3 hPa | 0 mm | - | 62 W/m² | - |
| 1777896919 | 16.67° C | 78% | 1014.4 hPa | 0 mm | - | 47 W/m² | - |
| 1777896320 | 16.67° C | 78% | 1014.2 hPa | 0 mm | - | 34 W/m² | - |
| 1777895715 | 16.67° C | 78% | 1014.2 hPa | 0 mm | - | 23 W/m² | - |
| 1777895110 | 16.67° C | 77% | 1014.3 hPa | 0 mm | - | 11 W/m² | - |
| 1777894509 | 16.67° C | 76% | 1014.1 hPa | 0 mm | - | 4 W/m² | - |
| 1777893910 | 16.67° C | 75% | 1014 hPa | 0 mm | - | 1 W/m² | - |
| 1777893309 | 16.11° C | 75% | 1014 hPa | 0 mm | - | 0 W/m² | - |
| 1777892708 | 16.67° C | 75% | 1014 hPa | 0 mm | - | 0 W/m² | - |
| 1777892105 | 16.67° C | 76% | 1014.1 hPa | 0 mm | - | 0 W/m² | - |
| 1777891506 | 16.67° C | 75% | 1014.2 hPa | 0 mm | - | 0 W/m² | - |
| 1777890901 | 16.67° C | 75% | 1014.1 hPa | 0 mm | - | 0 W/m² | - |
| 1777890298 | 16.67° C | 75% | 1014.4 hPa | 0 mm | - | 0 W/m² | - |
| 1777889698 | 16.67° C | 74% | 1014.6 hPa | 0 mm | - | 0 W/m² | - |
| 1777889093 | 17.22° C | 73% | 1014.5 hPa | 0 mm | - | 0 W/m² | - |
| 1777888492 | 17.22° C | 73% | 1014.2 hPa | 0 mm | - | 0 W/m² | - |
| 1777887892 | 17.22° C | 72% | 1014.2 hPa | 0 mm | - | 0 W/m² | - |
| 1777887290 | 17.78° C | 70% | 1014.4 hPa | 0 mm | - | 0 W/m² | - |
| 1777886688 | 17.78° C | 70% | 1014.5 hPa | 0 mm | - | 0 W/m² | - |
| 1777886083 | 17.78° C | 70% | 1014.5 hPa | 0 mm | - | 0 W/m² | - |
| 1777885478 | 17.78° C | 69% | 1014.6 hPa | 0 mm | - | 0 W/m² | - |
* Rain latest hour (hover to see other rain measurements)
** Current wind speed in m/s (hover to see current wind gust speed)